Regional Weather Roundup
Issued by NWS

Home | Current Version | Previous Version | Text Only | Print | Product List | Glossary On
Versions: 1 2 3 4 5 6 7 8 9 10 11 12 13 14 15 16 17 18 19 20 21 22 23 24 25 26 27 28 29 30 31 32 33 34 35 36 37 38 39 40 41 42 43 44 45 46 47 48 49 50
000
ASUS43 KDTX 180701
RWRMI
MICHIGAN HOURLY REGIONAL WEATHER ROUNDUP
NATIONAL WEATHER SERVICE DETROIT/PONTIAC MI
300 AM EDT THU SEP 18 2014

NOTE: "FAIR" INDICATES FEW OR NO CLOUDS BELOW 12,000 FEET WITH NO
SIGNIFICANT WEATHER AND/OR OBSTRUCTION TO VISIBILITY.

MIZ047>049-052>055-059>063-066>070-074>076-081>083-180800-
SOUTHEAST LOWER MICHIGAN

CITY           SKY/WX    TMP DP  RH WIND       PRES   REMARKS
ADRIAN         CLEAR     46  44  93 N3        30.05R
ALMA           CLEAR     44  43  97 NW3       30.06R
ANN ARBOR      CLEAR     41  38  89 CALM      30.04R
BAD AXE        MOCLDY    51  51 100 N3        30.04S
CARO           CLEAR     44  43  97 N3        30.04R
DETROIT CITY   CLEAR     55  47  74 CALM      30.03R
DETROIT        PTCLDY    52  46  80 CALM      30.04R
FLINT          CLEAR     49  45  86 W5        30.04S
GROSSE ILE     CLEAR     52  46  82 NW5       30.02S
HILLSDALE      CLEAR     44  44 100 CALM      30.04S FOG
HOWELL         CLEAR     44  43  96 W3        30.04R

CITY           SKY/WX    TMP DP  RH WIND       PRES   REMARKS
JACKSON        CLEAR     44  42  93 CALM      30.05R
LAMBERTVILLE   CLEAR     45  43  93 CALM      30.04S FOG
LANSING        CLEAR     46  43  89 CALM      30.06R
LAPEER           N/A     42  41  97 CALM      30.04R
MASON          PTCLDY    43  42  97 CALM      30.05S FOG
MONROE         CLEAR     45  43  93 CALM      30.02S
MT. CLEMENS    CLEAR     51  45  80 W5        30.01S
PONTIAC        CLEAR     52  45  77 NW5       30.03R
PORT HOPE        N/A     57  52  83 N13       30.03R
PORT HURON     CLEAR     43  43 100 NW3       30.02S FOG
TRI CITIES     CLEAR     50  45  83 N7        30.06R
TROY           CLEAR     55  46  70 NW7       30.04S
SAGINAW HB     CLEAR     50  48  93 N3        30.04S
$$
MIZ043>046-050>051-056>058-064>065-071>073-077>080-180800-
SOUTHWEST LOWER MICHIGAN

CITY           SKY/WX    TMP DP  RH WIND       PRES   REMARKS
BATTLE CREEK   CLEAR     45  42  89 CALM      30.06R
BENTON HARBOR  CLEAR     42  41  96 CALM      30.05R
BIG RAPIDS     PTCLDY    45  45 100 CALM      30.06R
COLDWATER      FOG       46  45  97 MISG      30.05R VSB 3/4
FREMONT        FAIR      47  47  97 NE3       30.06R
HOLLAND        CLEAR     46  43  89 CALM      30.06R
GRAND RAPIDS   CLEAR     45  43  93 S3        30.06R
IONIA          FAIR      46  45  96 CALM      30.04S
KALAMAZOO      CLEAR     44  42  93 CALM      30.06R FOG
LUDINGTON      CLOUDY    52  50  93 NE5       30.07R
MARSHALL       PTCLDY    40  40  99 CALM      30.05S FOG
MOUNT PLEASANT CLEAR     45  44  97 CALM      30.05S
MUSKEGON       CLEAR     47  44  90 MISG      30.05R
SOUTH HAVEN    CLEAR     44  43  97 CALM      30.05S
$$
MIZ016>042-180800-
NORTHERN LOWER MICHIGAN

CITY           SKY/WX    TMP DP  RH WIND       PRES   REMARKS
ALPENA         CLOUDY    48  45  89 NE10      30.09R
BEAVER ISLAND  CLOUDY    47  40  77 N6        30.12R
BELLAIRE       CLOUDY    50  44  80 N5        30.09R
CADILLAC       PTCLDY    46  46 100 CALM      30.06R
CHARLEVOIX     CLOUDY    49  44  84 NE8       30.12S
FRANKFORT      MOCLDY    53  45  75 CALM      30.08S
GAYLORD        CLOUDY    46  44  93 NE8       30.08R
GRAYLING       CLOUDY    49  49  98 CALM      30.08S
HARBOR SPRINGS CLOUDY    47  41  78 NE6       30.11R
HOUGHTON LAKE  PTCLDY    42  41  96 NE5       30.06S
MANISTEE       CLOUDY    54  46  76 N7        30.08R
OSCODA         CLOUDY    52  49  89 N12       30.05R
PELLSTON       CLOUDY    47  41  80 N7        30.11R
ROGERS CITY    CLOUDY    47  44  90 NE9       30.11R
TRAVERSE CITY  CLOUDY    53  45  74 N7        30.07R
$$
MIZ007>008-015-180800-
EASTERN UPPER MICHIGAN

CITY           SKY/WX    TMP DP  RH WIND       PRES   REMARKS
KINROSS        CLOUDY    41  37  87 E7        30.13S
MACKINAC ISLAN CLOUDY    44  38  81 NE10      30.12R
NEWBERRY       CLOUDY    41  36  82 NW5       30.13S
S. S. MARIE    MOCLDY    40  33  76 NE3       30.14R
$$
MIZ004>006-011>014-085-180800-
CENTRAL UPPER MICHIGAN

CITY           SKY/WX    TMP DP  RH WIND       PRES   REMARKS
MANISTIQUE     CLOUDY    42  37  83 N3        30.14S
ESCANABA       CLOUDY    43  34  70 NE5       30.15S
MENOMINEE      CLOUDY    43  36  75 N10G16    30.14R
SAWYER-GWINN   CLOUDY    41  34  76 NE7       30.15R
$$
MIZ001>003-009>011-084-180800-
WESTERN UPPER MICHIGAN

CITY           SKY/WX    TMP DP  RH WIND       PRES   REMARKS
IRON MOUNTAIN  CLOUDY    40  34  79 NE8       30.15R WCI  34
HOUGHTON       MOCLDY    36  30  79 NE5       30.16S WCI  32
COPPER HARBOR    N/A     43  31  62 VRB6      30.17R
IRONWOOD       CLOUDY    41  37  87 E10       30.12S
$$

ABBREVIATIONS USED IN REMARKS
   TC - TEMPERATURE IN CELSIUS
  WCI - WIND CHILL INDEX
   HX - HEAT INDEX
  VSB - VISIBILITY



USA.gov is the U.S. government's official web portal to all federal, state and local government web resources and services.